Wind_Speed
3 2 2 2 2 1 1 0 1 1 2 2 2 3 3 3 4 4 4 4 3 2 1 2 2 3 4 4 4 4 4 5 5 6 5 5 5 5 6 6 7 6 7
4 4 3 3 3 2 2 2 2 2 2 2 3 3 4 4 4 3 4 4 3 3 2 2 3 4 4 4 5 5 5 6 6 6 7 6 7 7 7 7 7 7 7
6 6 5 5 5 4 4 4 3 4 4 4 4 4 4 5 5 5 4 4 4 4 4 4 5 5 5 6 6 6 7 7 7 7 7 7 8 8 9 9 8 8 8
8 7 7 7 6 6 6 6 5 5 5 6 6 6 6 6 7 6 6 5 6 6 5 5 6 6 7 7 8 7 8 8 8 8 8 8 9 9 9 9 9 9 9
8 8 8 8 9 8 8 8 7 7 7 7 7 7 7 8 8 7 7 7 7 7 7 7 7 7 8 8 8 8 9 9 9 9 9 9 10 10 10 10 10 10 10
9 10 10 10 10 10 10 10 9 9 9 9 8 9 9 9 9 9 9 9 9 9 9 9 9 9 9 9 9 10 10 10 10 10 10 10 10 11 11 12 12 12 12
11 11 12 12 12 12 12 11 11 11 11 11 10 10 10 11 11 11 11 11 10 11 11 11 11 11 11 11 11 11 11 11 11 12 11 11 11 12 13 13 13 13 14
12 12 12 13 14 14 14 14 13 13 13 12 12 12 12 12 13 13 13 13 13 13 13 13 13 14 14 14 13 13 13 13 13 12 13 13 14 14 14 15 15 15 15
13 13 12 13 14 15 15 15 15 14 14 15 14 14 14 14 15 15 15 15 15 15 14 15 15 16 16 16 16 15 15 15 14 15 15 15 15 16 15 16 16 16 16
14 14 14 14 15 15 15 16 16 16 16 16 16 16 17 17 17 17 17 17 18 17 17 17 17 18 19 19 18 17 17 17 17 17 17 18 18 17 17 17 18 18 18
16 17 17 17 17 16 16 16 16 16 17 18 19 19 18 19 19 19 19 19 19 20 20 20 20 20 20 20 20 20 20 20 19 19 19 19 19 20 20 20 20 19 19
18 18 19 19 19 19 18 18 18 18 19 20 20 20 20 21 21 21 21 21 21 22 22 22 22 22 22 22 22 22 22 22 21 21 21 21 22 21 21 21 21 21 20
19 19 20 20 21 21 21 21 21 21 21 22 22 22 22 22 22 22 23 24 24 24 25 24 24 24 24 24 24 24 25 24 23 23 23 23 23 23 23 22 22 23 23
21 21 22 22 23 23 24 24 24 25 25 24 25 24 24 24 24 24 24 25 25 26 26 27 27 26 26 26 26 26 25 25 24 24 24 25 24 24 24 24 24 25 25
23 24 25 25 25 26 26 26 27 28 28 27 27 27 27 26 26 27 27 27 27 27 28 28 29 28 28 28 28 28 28 27 26 26 27 26 26 26 26 26 27 27 28
26 27 27 28 28 28 28 29 29 29 30 30 30 30 29 29 28 28 29 29 29 30 30 30 30 29 29 29 29 29 29 28 28 28 28 27 27 27 28 28 28 29 30
28 29 29 30 30 30 30 31 31 32 32 33 33 33 32 32 32 31 31 31 32 32 32 32 32 32 31 31 31 31 31 31 31 30 29 29 29 29 29 29 30 31 32
31 31 31 31 31 32 32 32 33 33 33 34 35 34 34 35 35 34 33 33 34 34 34 34 34 34 33 33 32 32 32 32 31 31 31 30 31 31 32 32 32 32 32
31 32 33 33 33 33 34 34 34 35 34 34 36 36 36 37 37 37 36 36 36 36 36 35 35 35 35 34 34 34 34 33 33 33 32 33 32 33 34 34 34 34 33
33 33 34 34 34 34 35 35 36 36 36 36 37 37 37 38 39 39 38 39 38 37 37 37 37 37 36 35 35 35 35 34 34 34 34 34 35 35 36 36 36 35 35
35 35 36 36 36 36 36 37 36 36 36 38 38 38 38 39 39 39 39 39 39 39 38 38 38 38 37 36 36 36 36 36 35 35 35 35 36 36 37 37 37 36 36
37 37 38 38 38 38 39 39 38 38 38 38 39 39 39 39 39 39 38 38 39 40 39 39 39 39 38 38 38 38 38 36 36 36 36 37 37 38 38 38 38 38 38
38 39 39 39 40 40 41 40 40 40 39 39 39 39 39 40 40 40 40 40 40 40 41 41 41 40 39 38 38 38 38 38 37 36 36 37 37 37 38 38 38 37 36
38 39 39 39 39 40 41 41 41 40 40 39 39 39 40 40 40 40 40 40 40 40 40 40 40 39 37 37 38 38 38 37 37 36 35 35 36 36 37 37 36 36 35
38 39 39 39 39 40 40 41 41 41 41 40 40 40 40 41 40 40 40 39 39 39 39 39 39 39 37 38 39 38 37 36 37 37 36 37 37 37 37 37 37 36 36
39 39 39 40 40 40 40 40 40 40 41 40 40 39 39 39 39 40 39 39 38 37 38 38 39 39 39 38 38 37 37 37 37 37 37 37 37 37 37 36 36 36 35
Wind_Direction
341 326 317 335 350 6 9 197 173 177 191 195 186 182 183 189 190 194 189 188 190 196 208 244 282 300 307 308 304 302 298 296 300 299 290 290 292 298 296 291 287 280 282
304 297 288 299 297 289 287 283 265 247 233 230 225 215 208 205 209 206 201 205 208 217 240 272 290 302 306 308 309 304 302 299 298 295 289 285 285 293 300 297 292 288 288
298 301 294 289 292 284 282 282 273 261 259 255 249 244 230 222 220 216 219 229 237 248 265 276 282 289 300 307 307 303 300 298 298 297 291 287 287 290 294 295 289 288 289
293 292 288 284 283 281 282 277 271 266 262 261 256 252 243 231 228 227 233 243 251 259 269 277 282 285 293 299 301 300 301 301 300 293 289 288 290 290 289 290 291 289 291
283 284 283 278 276 277 277 273 268 265 263 264 261 257 247 240 237 237 243 249 254 261 271 280 286 290 293 296 297 296 305 305 302 295 290 290 293 293 294 292 293 292 291
277 278 279 277 275 274 273 272 269 266 264 265 265 260 254 249 246 246 251 253 255 261 269 276 282 288 291 292 294 296 298 298 298 295 292 292 293 295 297 296 292 291 292
275 275 274 272 273 272 272 272 271 269 266 267 265 263 262 258 253 251 253 257 262 264 267 272 278 283 287 288 289 289 290 291 293 292 289 290 290 291 293 293 292 291 292
273 274 273 271 271 272 272 271 272 270 264 264 263 264 262 261 258 256 257 262 267 269 271 272 275 278 281 283 286 285 285 287 289 288 287 288 287 288 289 289 288 289 291
268 269 269 269 271 274 273 270 271 269 264 262 261 261 260 261 259 260 262 265 267 270 272 273 276 278 278 279 281 283 282 283 284 285 284 285 285 286 288 289 289 288 292
266 267 268 270 272 274 276 275 272 268 266 264 263 264 262 263 262 263 267 268 268 270 273 276 277 281 281 277 276 278 281 281 282 283 285 285 284 284 285 288 289 288 288
266 266 269 272 273 274 274 274 274 271 267 264 264 268 269 268 268 268 269 270 270 272 274 276 278 281 283 282 277 276 278 280 282 282 284 284 286 284 283 285 287 287 286
268 269 270 272 273 272 272 272 272 271 268 266 268 269 269 271 270 269 270 273 275 277 277 278 279 281 282 282 281 278 278 278 278 280 282 283 284 284 285 284 284 284 285
269 269 269 271 272 271 271 272 271 271 269 267 269 271 271 272 272 271 272 274 275 276 278 279 280 281 281 282 281 281 280 278 277 278 279 280 282 282 282 282 282 283 283
267 267 267 270 271 271 271 272 272 272 271 269 268 269 270 270 271 271 273 275 276 276 276 277 278 279 280 281 280 280 281 279 277 277 278 279 280 281 282 281 280 281 283
268 268 268 269 270 271 272 273 274 272 272 270 268 268 270 271 271 272 273 275 276 277 278 278 279 279 280 280 279 278 278 279 277 276 276 276 276 279 280 280 280 280 283
269 269 268 268 269 269 270 272 275 274 272 269 267 267 267 268 271 273 273 274 275 276 277 279 280 280 280 278 278 278 277 277 277 275 274 276 276 279 279 281 280 280 282
268 269 269 269 269 269 269 271 272 272 271 269 267 267 268 269 271 274 273 274 275 276 276 277 278 278 278 278 276 276 276 274 274 275 274 274 274 276 279 281 281 281 282
269 268 268 266 267 267 268 269 271 271 271 270 268 269 268 270 272 275 275 275 275 275 274 274 275 275 275 275 275 274 274 273 273 274 274 274 275 276 278 280 281 282 281
268 268 267 266 267 267 267 269 270 270 270 270 269 270 270 271 272 273 274 273 274 274 274 275 275 274 274 274 273 273 272 272 271 271 272 274 276 277 279 280 281 281 281
269 269 268 268 269 269 269 270 270 270 270 270 270 270 271 270 271 271 272 271 271 272 273 274 275 274 273 272 272 271 270 271 271 271 272 274 276 278 278 280 281 282 280
267 267 267 268 270 270 270 270 270 270 271 270 269 269 270 270 270 270 270 269 269 270 272 273 274 274 274 272 271 271 270 272 272 271 272 273 274 276 278 279 280 281 281
266 266 267 269 270 271 270 270 270 271 270 270 269 269 270 270 270 271 271 270 269 270 271 272 273 274 273 272 272 272 271 272 271 272 272 273 274 276 277 277 279 280 280
265 265 267 269 270 271 271 270 271 271 272 271 270 271 271 270 270 271 272 271 271 269 269 270 271 272 271 271 270 271 273 272 270 271 271 272 273 275 276 277 279 280 280
267 266 267 268 269 270 271 271 271 271 272 272 273 272 271 271 271 272 271 271 270 269 270 269 269 269 270 270 270 272 273 271 270 270 271 271 272 274 276 276 278 279 280
269 267 267 267 268 269 271 272 273 273 273 273 273 273 273 272 272 271 271 270 269 268 267 267 268 267 268 269 270 271 271 270 270 269 269 271 272 273 275 276 277 279 279
270 269 268 268 268 269 270 271 272 272 272 271 272 272 273 273 272 270 270 269 269 268 266 266 267 268 268 269 270 271 271 271 271 269 269 270 272 274 275 276 276 277 277
Height
5917 5916 5916 5915 5914 5914 5913 5913 5912 5912 5912 5912 5912 5912 5913 5913 5914 5914 5914 5915 5915 5915 5915 5915 5915 5915 5914 5913 5912 5912 5912 5911 5910 5910 5909 5909 5908 5908 5907 5906 5906 5905 5905
5917 5916 5915 5915 5914 5914 5914 5913 5912 5912 5912 5912 5912 5912 5912 5912 5913 5913 5914 5914 5914 5914 5914 5914 5914 5914 5913 5912 5911 5911 5910 5910 5909 5909 5908 5908 5908 5907 5906 5905 5904 5904 5903
5916 5915 5915 5914 5914 5914 5913 5913 5912 5912 5912 5911 5911 5911 5911 5912 5912 5913 5913 5913 5913 5913 5913 5913 5913 5912 5912 5911 5910 5910 5909 5908 5908 5907 5907 5906 5906 5905 5905 5903 5903 5902 5902
5916 5915 5914 5914 5913 5913 5913 5913 5912 5912 5911 5911 5911 5911 5911 5911 5911 5912 5912 5912 5912 5912 5912 5912 5912 5911 5910 5910 5909 5908 5907 5907 5906 5905 5905 5904 5904 5903 5902 5902 5901 5900 5899
5915 5914 5913 5913 5913 5912 5912 5911 5911 5911 5910 5910 5910 5910 5910 5910 5910 5910 5911 5911 5911 5911 5911 5911 5910 5910 5909 5908 5907 5906 5905 5905 5904 5903 5902 5902 5901 5900 5900 5899 5898 5898 5897
5913 5912 5912 5911 5911 5911 5910 5910 5910 5909 5909 5908 5908 5908 5908 5908 5909 5909 5909 5909 5909 5909 5909 5908 5908 5908 5907 5906 5905 5904 5904 5903 5902 5900 5900 5899 5898 5898 5897 5896 5895 5895 5894
5910 5910 5910 5909 5909 5908 5908 5908 5908 5907 5907 5906 5906 5906 5906 5906 5906 5907 5907 5907 5907 5906 5906 5906 5905 5905 5904 5903 5903 5902 5901 5900 5899 5898 5897 5896 5895 5895 5894 5893 5892 5891 5891
5908 5907 5907 5907 5906 5906 5905 5905 5905 5904 5903 5904 5904 5904 5904 5904 5904 5904 5904 5904 5904 5904 5903 5903 5902 5901 5901 5900 5900 5899 5898 5897 5896 5895 5894 5893 5892 5891 5890 5889 5888 5888 5887
5905 5904 5904 5904 5903 5903 5902 5902 5901 5901 5900 5901 5901 5900 5900 5901 5901 5901 5901 5901 5900 5900 5900 5899 5899 5898 5897 5896 5896 5895 5894 5893 5892 5891 5890 5890 5888 5887 5886 5885 5884 5883 5883
5901 5901 5900 5900 5900 5899 5899 5898 5898 5898 5897 5897 5897 5897 5897 5897 5897 5897 5897 5897 5896 5896 5896 5895 5894 5894 5893 5892 5891 5890 5890 5889 5888 5887 5886 5885 5884 5883 5882 5881 5880 5879 5878
5896 5896 5896 5896 5896 5895 5895 5895 5894 5894 5894 5894 5893 5893 5893 5892 5892 5892 5892 5892 5892 5891 5891 5890 5890 5889 5888 5887 5886 5885 5885 5884 5883 5883 5882 5881 5879 5878 5877 5877 5876 5874 5873
5892 5892 5891 5891 5891 5891 5891 5890 5890 5889 5889 5889 5889 5889 5889 5888 5888 5887 5887 5887 5887 5887 5886 5885 5884 5884 5883 5882 5881 5880 5879 5879 5878 5877 5876 5875 5874 5873 5872 5871 5870 5869 5868
5886 5886 5886 5886 5886 5886 5885 5885 5885 5884 5884 5884 5884 5884 5884 5883 5883 5882 5882 5882 5881 5881 5880 5880 5879 5878 5877 5876 5875 5874 5874 5873 5872 5871 5870 5869 5868 5867 5866 5865 5865 5864 5863
5881 5881 5880 5880 5880 5880 5880 5879 5879 5878 5878 5878 5878 5878 5878 5877 5877 5877 5876 5876 5875 5875 5874 5873 5873 5872 5871 5870 5869 5868 5867 5866 5865 5864 5864 5863 5862 5862 5860 5859 5859 5857 5856
5875 5875 5874 5874 5874 5874 5873 5873 5872 5871 5871 5871 5871 5871 5871 5871 5870 5870 5870 5869 5869 5868 5867 5866 5866 5865 5864 5863 5862 5861 5860 5859 5859 5858 5857 5856 5855 5855 5854 5853 5852 5851 5850
5868 5867 5867 5867 5867 5866 5866 5865 5865 5864 5863 5863 5863 5863 5863 5863 5863 5863 5862 5862 5861 5861 5860 5859 5858 5857 5856 5855 5854 5853 5853 5852 5851 5850 5849 5848 5848 5847 5846 5845 5844 5843 5842
5860 5860 5859 5859 5858 5858 5858 5857 5856 5856 5855 5855 5854 5854 5855 5855 5855 5854 5854 5854 5853 5852 5851 5850 5849 5848 5848 5847 5846 5845 5844 5844 5843 5842 5842 5841 5840 5840 5839 5838 5836 5835 5833
5851 5851 5851 5851 5850 5849 5849 5848 5848 5847 5846 5845 5845 5845 5845 5845 5845 5845 5845 5844 5844 5843 5842 5841 5840 5839 5838 5838 5837 5836 5835 5835 5835 5834 5833 5833 5832 5831 5830 5829 5828 5827 5825
5841 5841 5841 5841 5841 5841 5840 5839 5838 5837 5837 5836 5836 5836 5836 5836 5836 5835 5835 5834 5833 5833 5832 5831 5830 5829 5829 5828 5827 5827 5826 5826 5825 5825 5825 5824 5823 5822 5821 5820 5819 5817 5816
5831 5831 5831 5831 5831 5831 5830 5830 5829 5828 5828 5827 5826 5826 5825 5825 5825 5824 5823 5823 5822 5822 5822 5821 5820 5819 5819 5818 5818 5817 5816 5816 5816 5816 5815 5815 5814 5813 5811 5810 5809 5808 5806
5821 5821 5821 5821 5820 5820 5820 5819 5819 5818 5817 5816 5816 5815 5815 5814 5814 5813 5812 5811 5811 5810 5811 5810 5810 5809 5808 5808 5807 5807 5806 5805 5805 5805 5805 5804 5804 5802 5801 5800 5799 5798 5796
5810 5810 5810 5810 5809 5809 5809 5808 5808 5807 5806 5805 5805 5804 5804 5803 5802 5802 5801 5800 5799 5799 5799 5799 5799 5798 5798 5797 5796 5796 5795 5794 5794 5794 5794 5794 5793 5792 5791 5790 5789 5787 5785
5799 5799 5799 5798 5798 5797 5797 5797 5796 5796 5794 5794 5793 5793 5792 5792 5791 5790 5789 5788 5788 5787 5787 5787 5787 5787 5786 5786 5785 5785 5784 5783 5782 5782 5782 5782 5782 5781 5780 5779 5778 5776 5775
5787 5787 5787 5786 5786 5785 5785 5784 5784 5783 5782 5781 5781 5781 5780 5779 5779 5778 5777 5776 5776 5775 5775 5775 5775 5775 5775 5774 5774 5773 5773 5772 5772 5771 5771 5771 5770 5770 5769 5768 5767 5766 5764
5775 5774 5774 5774 5774 5774 5773 5772 5772 5771 5770 5770 5769 5768 5768 5767 5766 5765 5765 5764 5764 5763 5763 5763 5763 5763 5764 5763 5763 5761 5761 5761 5761 5760 5760 5760 5759 5759 5758 5757 5756 5755 5754
5762 5762 5762 5762 5761 5761 5761 5760 5759 5759 5758 5758 5757 5756 5755 5754 5754 5753 5752 5752 5752 5752 5751 5751 5751 5751 5752 5751 5750 5750 5750 5750 5749 5749 5749 5749 5748 5748 5747 5746 5745 5744 5744